Regional Weather Roundup
Issued by NWS Goodland, KS

Home | Current Version | Previous Version | Text Only | Print | Product List | Glossary Off
Versions: 1 2 3 4 5 6 7 8 9 10 11 12 13 14 15 16 17 18 19 20 21 22 23 24 25 26 27 28 29 30 31 32 33 34 35 36 37 38 39 40 41 42 43 44 45 46 47 48 49 50

000
ASUS43 KGLD 251559
RWRGLD

GOODLAND FORECAST AREA HOURLY WEATHER ROUNDUP
NATIONAL WEATHER SERVICE GOODLAND KS
1000 AM MDT THU MAY 25 2017

...OFFICIAL OBSERVATIONS...

CITY           SKY/WX    TMP DP  RH WIND       PRES   REMARKS
GOODLAND KS    SUNNY     74  50  42 N13       29.52S
HILL CITY KS   SUNNY     68  50  52 SW12G20   29.52F
IMPERIAL NEB   SUNNY     70  51  51 NE8       29.50R
MCCOOK NEB     SUNNY     67  50  54 E7        29.49F
AKRON CO       CLOUDY    71  46  40 VRB6      29.58R
BURLINGTON CO  SUNNY     73  52  47 N7        29.56F
LIMON CO       SUNNY     74  41  30 VRB6      29.62F
$$

...UNOFFICIAL OBSERVATIONS...

CITY           SKY/WX    TMP DP  RH WIND       PRES   REMARKS
LENORA KS        N/A     66  32  28 MISG        N/A
NORTON KS      SUNNY     63  46  55 S14       29.52S
SHARON SPRINGS   N/A     76  54  46 NW8         N/A
TRENTON NEB      N/A     66  32  28 CALM        N/A
KIT CARSON CO    N/A     74  49  40 CALM        N/A
YUMA CO        FAIR      68  39  34 N6        29.55S
$$




USA.gov is the U.S. government's official web portal to all federal, state and local government web resources and services.